Location: Clair
(33.8067°N, 117.9845°W)
Time: 18:11:38
(UTC+00:00)

SKYMED 2 - Pass Details

Date: 14 February 2026
Orbit: 622 x 623 km, 97.9° (Epoch: 8 March)

Event Time Altitude Azimuth Distance (km) Brightness Sun altitude
Rises 13:31:27 0° 180° (S) 2,887 7.1 -14.2°
Reaches altitude 10° 13:33:42 10° 185° (S) 1,985 6.2 -13.8°
Maximum altitude 13:37:52 48° 260° (W) 816 3.8 -12.9°
Drops below altitude 10° 13:42:04 10° 335° (NNW) 1,997 5.9 -12.1°
Sets 13:44:20 0° 342° (NNW) 2,907 6.7 -11.6°
